Simultaneous Nadir Overpasses (SNOs) Predictions

Prediction of SNOs between GOES-16 and TERRA Satellite Orbit:

Table of predicted SNOs for the next 14.0 days since TLE Epoch: 12/3/2022
Index Date Time (GOES-16) GOES-16 Lat,Lon TERRA Lat,Lon Distance(km) Time Diff (sec)
1 12/03/2022 15:17:45 -0.04, -75.20 0.12, -75.87 76.59 80
2 12/05/2022 14:59:23 -0.04, -75.21 -0.69, -72.08 356.27 80
3 12/06/2022 03:22:33 0.04, -75.20 -0.32, -77.06 210.48 80
4 12/08/2022 03:04:10 0.04, -75.22 0.45, -73.26 222.90 80
5 12/08/2022 15:27:11 -0.03, -75.24 0.57, -78.21 337.17 80
6 12/10/2022 15:08:48 -0.03, -75.26 -0.21, -74.41 96.89 80
7 12/11/2022 03:31:57 0.03, -75.25 -0.85, -79.38 469.35 80
8 12/13/2022 03:16:14 0.02, -75.28 -0.05, -75.58 34.50 80
9 12/15/2022 02:57:51 0.02, -75.31 0.75, -71.78 401.18 80
10 12/15/2022 15:18:13 -0.02, -75.33 0.27, -76.73 158.47 80
